Time,TemperatureF,DewpointF,PressureIn,WindDirection,WindDirectionDegrees,WindSpeedMPH,WindSpeedGustMPH,Humidity,HourlyPrecipIn,Conditions,Clouds,dailyrainin,SolarRadiationWatts/m^2,SoftwareType,DateUTC
2013-01-21 00:07:00,25.9,12.0,29.99,South,169,3.0,7.0,57,0.00,,,0.00,0,weatherlink.com 1.10,2013-01-21 05:07:00,
2013-01-21 00:22:00,25.8,11.0,29.99,SSW,196,1.0,7.0,54,0.00,,,0.00,0,weatherlink.com 1.10,2013-01-21 05:22:00,
2013-01-21 00:37:00,25.5,10.0,29.99,NW,310,1.0,3.0,52,0.00,,,0.00,0,weatherlink.com 1.10,2013-01-21 05:37:00,
2013-01-21 00:52:00,25.1,9.0,30.00,NNW,335,0.0,5.0,51,0.00,,,0.00,0,weatherlink.com 1.10,2013-01-21 05:52:00,
2013-01-21 01:07:00,24.9,9.0,30.00,SSE,148,1.0,3.0,51,0.00,,,0.00,0,weatherlink.com 1.10,2013-01-21 06:07:00,
2013-01-21 01:22:00,24.5,13.0,30.01,NNW,333,0.0,1.0,62,0.00,,,0.00,0,weatherlink.com 1.10,2013-01-21 06:22:00,
2013-01-21 01:37:00,23.8,14.0,30.02,NNW,333,0.0,1.0,66,0.00,,,0.00,0,weatherlink.com 1.10,2013-01-21 06:37:00,
2013-01-21 01:52:00,23.2,14.0,30.02,NNW,333,0.0,1.0,68,0.00,,,0.00,0,weatherlink.com 1.10,2013-01-21 06:52:00,
2013-01-21 02:07:00,22.7,14.0,30.02,NNW,333,0.0,1.0,70,0.00,,,0.00,0,weatherlink.com 1.10,2013-01-21 07:07:00,
2013-01-21 02:22:00,22.3,15.0,30.03,NNW,333,1.0,2.0,72,0.00,,,0.00,0,weatherlink.com 1.10,2013-01-21 07:22:00,
2013-01-21 02:37:00,21.8,14.0,30.03,NNW,338,0.0,1.0,73,0.00,,,0.00,0,weatherlink.com 1.10,2013-01-21 07:37:00,
2013-01-21 02:52:00,21.3,14.0,30.03,NNW,338,0.0,1.0,74,0.00,,,0.00,0,weatherlink.com 1.10,2013-01-21 07:52:00,
2013-01-21 03:08:00,20.9,14.0,30.03,NNW,338,0.0,1.0,75,0.00,,,0.00,0,weatherlink.com 1.10,2013-01-21 08:08:00,
2013-01-21 03:23:00,20.5,14.0,30.03,NNW,338,0.0,1.0,76,0.00,,,0.00,0,weatherlink.com 1.10,2013-01-21 08:23:00,
2013-01-21 03:38:00,20.1,14.0,30.03,NNW,338,0.0,1.0,76,0.00,,,0.00,0,weatherlink.com 1.10,2013-01-21 08:38:00,
2013-01-21 03:53:00,19.7,14.0,30.03,NNW,338,0.0,2.0,77,0.00,,,0.00,0,weatherlink.com 1.10,2013-01-21 08:53:00,
2013-01-21 04:08:00,19.4,13.0,30.04,NNW,338,0.0,1.0,77,0.00,,,0.00,0,weatherlink.com 1.10,2013-01-21 09:08:00,
2013-01-21 04:23:00,19.2,13.0,30.04,NNW,338,0.0,0.0,77,0.00,,,0.00,0,weatherlink.com 1.10,2013-01-21 09:23:00,
2013-01-21 04:38:00,19.0,13.0,30.04,NNW,338,0.0,1.0,77,0.00,,,0.00,0,weatherlink.com 1.10,2013-01-21 09:38:00,
2013-01-21 04:53:00,18.8,13.0,30.04,NNW,338,0.0,1.0,77,0.00,,,0.00,0,weatherlink.com 1.10,2013-01-21 09:53:00,
2013-01-21 05:08:00,18.6,13.0,30.05,NNW,338,0.0,2.0,78,0.00,,,0.00,0,weatherlink.com 1.10,2013-01-21 10:08:00,
2013-01-21 05:23:00,18.4,12.0,30.05,NNW,338,0.0,1.0,77,0.00,,,0.00,0,weatherlink.com 1.10,2013-01-21 10:23:00,
2013-01-21 05:38:00,18.3,13.0,30.04,NNW,338,0.0,0.0,78,0.00,,,0.00,0,weatherlink.com 1.10,2013-01-21 10:38:00,
2013-01-21 05:53:00,18.1,12.0,30.04,NNW,338,0.0,0.0,78,0.00,,,0.00,0,weatherlink.com 1.10,2013-01-21 10:53:00,
2013-01-21 06:23:00,17.6,12.0,30.04,NNW,338,0.0,1.0,79,0.00,,,0.00,0,weatherlink.com 1.10,2013-01-21 11:23:00,
2013-01-21 06:53:00,17.2,12.0,30.05,NNW,338,0.0,1.0,79,0.00,,,0.00,0,weatherlink.com 1.10,2013-01-21 11:53:00,
2013-01-21 07:08:00,17.1,12.0,30.05,NNW,338,0.0,1.0,80,0.00,,,0.00,0,weatherlink.com 1.10,2013-01-21 12:08:00,
2013-01-21 07:23:00,17.3,12.0,30.04,NNW,338,0.0,0.0,81,0.00,,,0.00,0,weatherlink.com 1.10,2013-01-21 12:23:00,
2013-01-21 07:53:00,18.3,14.0,30.04,NNW,338,0.0,0.0,82,0.00,,,0.00,16,weatherlink.com 1.10,2013-01-21 12:53:00,
2013-01-21 08:08:00,18.4,14.0,30.05,NNW,338,0.0,1.0,82,0.00,,,0.00,28,weatherlink.com 1.10,2013-01-21 13:08:00,
2013-01-21 08:23:00,18.6,14.0,30.05,NNW,338,0.0,1.0,81,0.00,,,0.00,39,weatherlink.com 1.10,2013-01-21 13:23:00,
2013-01-21 08:38:00,19.1,14.0,30.05,NNW,338,0.0,2.0,81,0.00,,,0.00,40,weatherlink.com 1.10,2013-01-21 13:38:00,
2013-01-21 08:53:00,19.4,14.0,30.05,NNW,338,0.0,0.0,80,0.00,,,0.00,32,weatherlink.com 1.10,2013-01-21 13:53:00,
2013-01-21 09:08:00,20.1,14.0,30.05,NNW,338,1.0,2.0,78,0.00,,,0.00,49,weatherlink.com 1.10,2013-01-21 14:08:00,
2013-01-21 09:23:00,20.6,14.0,30.05,NNW,338,0.0,1.0,77,0.00,,,0.00,90,weatherlink.com 1.10,2013-01-21 14:23:00,
2013-01-21 09:38:00,21.5,14.0,30.05,NNW,338,0.0,1.0,74,0.00,,,0.00,84,weatherlink.com 1.10,2013-01-21 14:38:00,
2013-01-21 09:53:00,21.9,14.0,30.05,NNW,338,0.0,2.0,72,0.00,,,0.00,63,weatherlink.com 1.10,2013-01-21 14:53:00,
2013-01-21 10:23:00,22.5,14.0,30.04,NNW,338,0.0,2.0,69,0.00,,,0.00,113,weatherlink.com 1.10,2013-01-21 15:23:00,
2013-01-21 10:38:00,23.1,13.0,30.04,NNW,334,1.0,2.0,66,0.00,,,0.00,130,weatherlink.com 1.10,2013-01-21 15:38:00,
2013-01-21 10:53:00,23.3,13.0,30.02,NNW,332,1.0,2.0,64,0.00,,,0.00,120,weatherlink.com 1.10,2013-01-21 15:53:00,
2013-01-21 11:08:00,24.0,13.0,30.01,WNW,284,0.0,3.0,62,0.00,,,0.00,125,weatherlink.com 1.10,2013-01-21 16:08:00,
2013-01-21 11:23:00,24.5,13.0,30.00,West,270,1.0,4.0,62,0.00,,,0.00,153,weatherlink.com 1.10,2013-01-21 16:23:00,
2013-01-21 11:38:00,24.4,13.0,29.99,SSW,212,0.0,3.0,62,0.00,,,0.00,178,weatherlink.com 1.10,2013-01-21 16:38:00,
2013-01-21 11:53:00,25.4,12.0,29.98,SW,228,0.0,4.0,58,0.00,,,0.00,213,weatherlink.com 1.10,2013-01-21 16:53:00,
2013-01-21 12:08:00,25.7,13.0,29.96,WSW,237,1.0,3.0,59,0.00,,,0.00,176,weatherlink.com 1.10,2013-01-21 17:08:00,
2013-01-21 12:23:00,26.2,12.0,29.95,South,178,0.0,4.0,56,0.00,,,0.00,204,weatherlink.com 1.10,2013-01-21 17:23:00,
2013-01-21 12:38:00,26.5,11.0,29.94,NNW,329,1.0,4.0,53,0.00,,,0.00,137,weatherlink.com 1.10,2013-01-21 17:38:00,
2013-01-21 12:53:00,26.8,12.0,29.93,West,269,1.0,4.0,54,0.00,,,0.00,153,weatherlink.com 1.10,2013-01-21 17:53:00,
2013-01-21 13:09:00,26.9,12.0,29.93,South,171,0.0,3.0,54,0.00,,,0.00,120,weatherlink.com 1.10,2013-01-21 18:09:00,
2013-01-21 13:24:00,27.0,13.0,29.92,SW,232,0.0,3.0,55,0.00,,,0.00,81,weatherlink.com 1.10,2013-01-21 18:24:00,
2013-01-21 13:39:00,26.9,12.0,29.91,NW,313,1.0,3.0,54,0.00,,,0.00,88,weatherlink.com 1.10,2013-01-21 18:39:00,
2013-01-21 13:54:00,27.0,13.0,29.91,NW,325,0.0,3.0,55,0.00,,,0.00,70,weatherlink.com 1.10,2013-01-21 18:54:00,
2013-01-21 14:09:00,27.0,13.0,29.91,SSW,201,0.0,4.0,55,0.00,,,0.00,60,weatherlink.com 1.10,2013-01-21 19:09:00,
2013-01-21 14:24:00,27.0,12.0,29.89,South,186,0.0,3.0,54,0.00,,,0.00,56,weatherlink.com 1.10,2013-01-21 19:24:00,
2013-01-21 14:39:00,27.0,13.0,29.88,West,259,0.0,2.0,55,0.00,,,0.00,54,weatherlink.com 1.10,2013-01-21 19:39:00,
2013-01-21 14:54:00,27.0,13.0,29.88,South,175,0.0,4.0,55,0.00,,,0.00,58,weatherlink.com 1.10,2013-01-21 19:54:00,
2013-01-21 15:09:00,27.0,13.0,29.88,NW,307,0.0,3.0,56,0.00,,,0.00,46,weatherlink.com 1.10,2013-01-21 20:09:00,
2013-01-21 15:24:00,27.2,14.0,29.89,NW,309,0.0,1.0,57,0.00,,,0.00,40,weatherlink.com 1.10,2013-01-21 20:24:00,
2013-01-21 15:39:00,27.2,14.0,29.87,NW,318,0.0,3.0,58,0.00,,,0.00,28,weatherlink.com 1.10,2013-01-21 20:39:00,
2013-01-21 15:54:00,27.1,14.0,29.87,NNW,333,0.0,3.0,58,0.00,,,0.00,18,weatherlink.com 1.10,2013-01-21 20:54:00,
2013-01-21 16:09:00,26.9,14.0,29.86,West,267,0.0,4.0,59,0.00,,,0.00,11,weatherlink.com 1.10,2013-01-21 21:09:00,
2013-01-21 16:24:00,26.7,14.0,29.86,NW,307,0.0,2.0,59,0.00,,,0.00,7,weatherlink.com 1.10,2013-01-21 21:24:00,
2013-01-21 16:39:00,26.7,14.0,29.85,NW,307,1.0,3.0,60,0.00,,,0.00,0,weatherlink.com 1.10,2013-01-21 21:39:00,
2013-01-21 16:54:00,26.5,15.0,29.85,West,277,0.0,5.0,62,0.00,,,0.00,0,weatherlink.com 1.10,2013-01-21 21:54:00,
2013-01-21 17:09:00,26.4,16.0,29.85,South,186,0.0,3.0,65,0.00,,,0.00,0,weatherlink.com 1.10,2013-01-21 22:09:00,
2013-01-21 17:24:00,26.3,16.0,29.85,SW,223,0.0,3.0,66,0.00,,,0.00,0,weatherlink.com 1.10,2013-01-21 22:24:00,
2013-01-21 17:39:00,26.1,17.0,29.86,WSW,247,0.0,3.0,68,0.00,,,0.00,0,weatherlink.com 1.10,2013-01-21 22:39:00,
2013-01-21 17:54:00,25.9,17.0,29.86,West,277,0.0,1.0,70,0.00,,,0.00,0,weatherlink.com 1.10,2013-01-21 22:54:00,
2013-01-21 18:09:00,25.7,17.0,29.86,SW,235,0.0,2.0,70,0.00,,,0.00,0,weatherlink.com 1.10,2013-01-21 23:09:00,
2013-01-21 18:24:00,25.5,17.0,29.86,SW,234,0.0,2.0,71,0.00,,,0.00,0,weatherlink.com 1.10,2013-01-21 23:24:00,
2013-01-21 18:39:00,25.3,17.0,29.86,SW,234,0.0,1.0,72,0.00,,,0.00,0,weatherlink.com 1.10,2013-01-21 23:39:00,
2013-01-21 18:54:00,25.1,17.0,29.86,SW,234,0.0,1.0,72,0.00,,,0.00,0,weatherlink.com 1.10,2013-01-21 23:54:00,
2013-01-21 19:09:00,24.8,17.0,29.86,SW,234,0.0,1.0,73,0.00,,,0.00,0,weatherlink.com 1.10,2013-01-22 00:09:00,
2013-01-21 19:24:00,24.5,17.0,29.86,SW,234,0.0,2.0,74,0.00,,,0.00,0,weatherlink.com 1.10,2013-01-22 00:24:00,
2013-01-21 19:54:00,23.6,17.0,29.85,SW,234,0.0,1.0,75,0.00,,,0.00,0,weatherlink.com 1.10,2013-01-22 00:54:00,
2013-01-21 20:09:00,23.2,17.0,29.84,SW,234,0.0,0.0,76,0.00,,,0.00,0,weatherlink.com 1.10,2013-01-22 01:09:00,
2013-01-21 20:39:00,22.4,16.0,29.84,SW,234,0.0,1.0,77,0.00,,,0.00,0,weatherlink.com 1.10,2013-01-22 01:39:00,
2013-01-21 20:54:00,22.0,16.0,29.83,SW,234,0.0,1.0,77,0.00,,,0.00,0,weatherlink.com 1.10,2013-01-22 01:54:00,
2013-01-21 21:09:00,21.7,16.0,29.82,SW,234,0.0,1.0,78,0.00,,,0.00,0,weatherlink.com 1.10,2013-01-22 02:09:00,
2013-01-21 21:24:00,21.3,16.0,29.82,SW,234,0.0,1.0,79,0.00,,,0.00,0,weatherlink.com 1.10,2013-01-22 02:24:00,
2013-01-21 21:39:00,21.0,16.0,29.81,SW,234,1.0,1.0,80,0.00,,,0.00,0,weatherlink.com 1.10,2013-01-22 02:39:00,
2013-01-21 21:54:00,20.6,16.0,29.80,SW,234,0.0,1.0,81,0.00,,,0.00,0,weatherlink.com 1.10,2013-01-22 02:54:00,
2013-01-21 22:09:00,20.3,15.0,29.79,SW,234,0.0,1.0,81,0.00,,,0.00,0,weatherlink.com 1.10,2013-01-22 03:09:00,
2013-01-21 22:24:00,19.7,15.0,29.78,SW,234,0.0,1.0,82,0.00,,,0.00,0,weatherlink.com 1.10,2013-01-22 03:24:00,
2013-01-21 22:39:00,19.4,15.0,29.78,SW,234,0.0,1.0,83,0.00,,,0.00,0,weatherlink.com 1.10,2013-01-22 03:39:00,
2013-01-21 22:54:00,19.2,15.0,29.78,SW,234,0.0,1.0,84,0.00,,,0.00,0,weatherlink.com 1.10,2013-01-22 03:54:00,
2013-01-21 23:09:00,19.2,15.0,29.78,SW,234,0.0,2.0,85,0.00,,,0.00,0,weatherlink.com 1.10,2013-01-22 04:09:00,
2013-01-21 23:24:00,19.3,16.0,29.78,SW,234,0.0,1.0,86,0.00,,,0.00,0,weatherlink.com 1.10,2013-01-22 04:24:00,
2013-01-21 23:39:00,20.1,17.0,29.79,SW,234,0.0,2.0,87,0.00,,,0.00,0,weatherlink.com 1.10,2013-01-22 04:39:00,
2013-01-21 23:54:00,21.0,17.0,29.79,WSW,257,0.0,2.0,85,0.00,,,0.00,0,weatherlink.com 1.10,2013-01-22 04:54:00,